Regional Weather Roundup
Issued by NWS

Home | Current Version | Previous Version | Text Only | Print | Product List | Glossary Off
Versions: 1 2 3 4 5 6 7 8 9 10 11 12 13 14 15 16 17 18 19 20 21 22 23 24 25 26 27 28 29 30 31 32 33 34 35 36 37 38 39 40 41 42 43 44 45 46 47 48 49 50

889
ASUS43 KFSD 230902
RWRSD

WEATHER ROUNDUP FOR SOUTH DAKOTA
NATIONAL WEATHER SERVICE SIOUX FALLS SD
400 AM CDT SAT JUL 23 2016

NOTE: "FAIR" INDICATES FEW OR NO CLOUDS BELOW 12,000 FEET WITH NO
SIGNIFICANT WEATHER AND/OR OBSTRUCTIONS TO VISIBILITY.


SDZ001>005-009-010-012>017-231000-
NORTHWEST AND NORTH CENTRAL SOUTH DAKOTA

CITY           SKY/WX    TMP DP  RH WIND       PRES   REMARKS
BUFFALO          N/A     66  59  78 E9        29.81F
FAITH            N/A     67  60  78 SE15      29.88F
MOBRIDGE       CLOUDY    70  61  73 CALM      29.85F
$$

SDZ012>016-024>037-041>051-057-063-072>074-231000-
SOUTHWEST AND SOUTH CENTRAL SOUTH DAKOTA

CITY           SKY/WX    TMP DP  RH WIND       PRES   REMARKS
RAPID CTY ARPT CLOUDY    69  55  60 SE10      29.91F
PIERRE         CLOUDY    78  71  79 E12       29.84R
CUSTER         CLEAR     66  51  58 SW6       30.07S
ELLSWORTH AFB  CLOUDY    70  57  62 SE6       29.90F
PHILIP         PTCLDY    74  72  93 E7        29.84F
PINE RIDGE     CLOUDY    70  61  73 E7        29.93F
WINNER         FAIR      80  76  87 E10       29.87S
$$

SDZ004>011-016>023-039-040-231000-
NORTHEAST SOUTH DAKOTA

CITY           SKY/WX    TMP DP  RH WIND       PRES   REMARKS
ABERDEEN       CLOUDY    75  68  78 E8        29.87F
WATERTOWN      CLOUDY    77  67  71 E6        29.93F
BROOKINGS      CLOUDY    77  74  90 E8        29.92S
SISSETON         N/A     70  69  97 N3        29.91F
$$

SDZ017-020-022-023-036>040-048>070-231000-
SOUTHEAST SOUTH DAKOTA

CITY           SKY/WX    TMP DP  RH WIND       PRES   REMARKS
SIOUX FALLS    CLOUDY    80  77  90 E10       29.88F
HURON          CLOUDY    77  72  84 E8        29.86S
CHAMBERLAIN    CLOUDY    81  80  98 E7        29.86S
MITCHELL       CLOUDY    80  78  94 E5        29.86F
YANKTON        CLOUDY    81  77  89 SE5       29.83F
$$

ABBREVIATIONS USED IN REMARKS
   TC - TEMPERATURE IN CELSIUS
  WCI - WIND CHILL INDEX
   HX - HEAT INDEX
  VSB - VISIBILITY





USA.gov is the U.S. government's official web portal to all federal, state and local government web resources and services.